CW4086 Weather Reports


time (UTC)temp
C
wind
direction
speed
KPH
gust
KPH
rain 1hr
cm
rain 24hr
cm
rain mn
cm
humidity
%
barometer
mb
20260902165608 22 297 1.6 4.8 0.00 0.00 0.00 23 1016.0
20260902165104 22 293 1.6 4.8 0.00 0.00 0.00 24 1016.0
20260902163603 22 285 3.2 8.0 0.00 0.00 0.00 24 1015.8
20260902162604 21 263 3.2 4.8 0.00 0.00 0.00 26 1015.8
20260902162104 21 280 1.6 4.8 0.00 0.00 0.00 26 1015.8
20260902161604 21 232 3.2 4.8 0.00 0.00 0.00 28 1015.6
20260902161104 21 196 1.6 4.8 0.00 0.00 0.00 26 1015.6
20260902160603 21 163 1.6 3.2 0.00 0.00 0.00 25 1015.7
20260902160104 21 163 0.0 3.2 0.00 0.00 0.00 25 1015.8
20260902155615 21 163 0.0 3.2 0.00 0.00 0.00 28 1015.9
20260902155104 21 163 0.0 3.2 0.00 0.00 0.00 31 1015.9
20260902154604 21 163 0.0 1.6 0.00 0.00 0.00 31 1015.9
20260902154104 20 163 0.0 1.6 0.00 0.00 0.00 30 1015.8
20260902153604 20 163 0.0 1.6 0.00 0.00 0.00 30 1015.9
20260902153104 20 163 0.0 1.6 0.00 0.00 0.00 31 1016.0
20260902152104 19 163 0.0 1.6 0.00 0.00 0.00 30 1016.1
20260902151604 18 163 0.0 0.0 0.00 0.00 0.00 32 1016.1
20260902151104 18 163 0.0 3.2 0.00 0.00 0.00 35 1016.1
20260902150604 18 163 0.0 3.2 0.00 0.00 0.00 36 1016.1
20260902145608 17 163 0.0 0.0 0.00 0.00 0.00 36 1015.9
20260902144104 15 163 0.0 0.0 0.00 0.00 0.00 34 1015.7
20260902143605 15 163 0.0 0.0 0.00 0.00 0.00 31 1015.7
20260902142104 15 163 0.0 3.2 0.00 0.00 0.00 32 1015.6
20260902141114 16 163 0.0 4.8 0.00 0.00 0.00 32 1015.3
20260902140611 16 128 0.0 3.2 0.00 0.00 0.00 28 1015.2
20260902140109 16 128 0.0 3.2 0.00 0.00 0.00 28 1015.1
20260902135604 16 128 0.0 3.2 0.00 0.00 0.00 27 1015.1
20260902134604 16 133 1.6 3.2 0.00 0.00 0.00 29 1015.0
20260902134104 16 133 1.6 3.2 0.00 0.00 0.00 29 1015.0
20260902133104 15 133 1.6 3.2 0.00 0.00 0.00 29 1015.0
20260902131104 15 133 1.6 3.2 0.00 0.00 0.00 30 1014.9
20260902130105 15 133 1.6 3.2 0.00 0.00 0.00 29 1015.0
20260902125607 15 133 1.6 3.2 0.00 0.00 0.00 29 1015.1
20260902125104 16 133 1.6 3.2 0.00 0.00 0.00 29 1015.1
20260902124604 15 133 1.6 3.2 0.00 0.00 0.00 29 1015.2
20260902123604 15 133 0.0 3.2 0.00 0.00 0.00 30 1015.2
20260902123103 15 133 1.6 3.2 0.00 0.00 0.00 30 1015.2
20260902122604 15 133 1.6 3.2 0.00 0.00 0.00 31 1015.3
20260902122104 16 133 1.6 3.2 0.00 0.00 0.00 30 1015.4
20260902121604 16 133 1.6 1.6 0.00 0.00 0.00 28 1015.5
20260902120604 16 133 0.0 1.6 0.00 0.00 0.00 27 1015.5
20260902115609 16 133 1.6 3.2 0.00 0.00 0.00 28 1015.6
20260902115104 16 133 1.6 3.2 0.00 0.00 0.00 27 1015.7
20260902114604 17 133 1.6 3.2 0.00 0.00 0.00 27 1015.6
20260902114104 17 133 1.6 3.2 0.00 0.00 0.00 26 1015.7
20260902113604 16 133 1.6 4.8 0.00 0.00 0.00 27 1015.7
20260902113104 16 133 1.6 4.8 0.00 0.00 0.00 26 1015.6
20260902112604 16 133 1.6 3.2 0.00 0.00 0.00 27 1015.6
20260902112104 16 133 1.6 3.2 0.00 0.00 0.00 27 1015.6
20260902111604 16 133 0.0 3.2 0.00 0.00 0.00 27 1015.7
20260902111104 16 133 1.6 3.2 0.00 0.00 0.00 27 1015.6
20260902110604 16 133 1.6 3.2 0.00 0.00 0.00 26 1015.6
20260902110104 16 133 1.6 3.2 0.00 0.00 0.00 26 1015.5
20260902105608 16 133 1.6 3.2 0.00 0.00 0.00 27 1015.6
20260902105104 16 133 1.6 3.2 0.00 0.00 0.00 27 1015.6
20260902104604 16 133 1.6 3.2 0.00 0.00 0.00 27 1015.6
20260902103604 16 133 1.6 3.2 0.00 0.00 0.00 28 1015.5
20260902103104 16 133 1.6 3.2 0.00 0.00 0.00 28 1015.6
20260902102604 16 133 1.6 1.6 0.00 0.00 0.00 27 1015.6
20260902101604 16 133 0.0 3.2 0.00 0.00 0.00 26 1015.6
20260902101104 16 133 0.0 3.2 0.00 0.00 0.00 26 1015.6
20260902100604 16 133 0.0 3.2 0.00 0.00 0.00 26 1015.7
20260902100105 16 133 1.6 1.6 0.00 0.00 0.00 26 1015.7
20260902095606 16 133 0.0 3.2 0.00 0.00 0.00 26 1015.7
20260902095104 16 133 1.6 3.2 0.00 0.00 0.00 28 1015.8
20260902094604 16 133 1.6 3.2 0.00 0.00 0.00 28 1015.8
20260902094104 16 133 0.0 3.2 0.00 0.00 0.00 28 1015.8
20260902093604 17 133 1.6 3.2 0.00 0.00 0.00 28 1015.8
20260902093103 17 133 1.6 3.2 0.00 0.00 0.00 27 1015.9
20260902092604 17 133 1.6 3.2 0.00 0.00 0.00 27 1016.0
20260902092104 17 133 1.6 1.6 0.00 0.00 0.00 27 1016.1
20260902091604 17 133 0.0 1.6 0.00 0.00 0.00 26 1016.0
20260902091104 17 133 0.0 1.6 0.00 0.00 0.00 26 1016.0
20260902085606 17 133 0.0 3.2 0.00 0.00 0.00 28 1016.1
20260902085105 17 133 0.0 1.6 0.00 0.00 0.00 28 1016.1
20260902084604 17 133 0.0 1.6 0.00 0.00 0.00 29 1016.1
20260902084104 17 133 0.0 3.2 0.00 0.00 0.00 29 1016.1
20260902083604 17 133 1.6 3.2 0.00 0.00 0.00 28 1016.1
20260902082605 17 133 0.0 1.6 0.00 0.00 0.00 30 1016.1
20260902082104 17 133 0.0 1.6 0.00 0.00 0.00 30 1016.0
20260902081604 18 133 0.0 1.6 0.00 0.00 0.00 30 1016.1
20260902081103 18 133 0.0 1.6 0.00 0.00 0.00 31 1016.1
20260902080603 17 133 0.0 1.6 0.00 0.00 0.00 33 1016.0
20260902080104 17 133 0.0 3.2 0.00 0.00 0.00 32 1016.0
20260902075604 17 133 0.0 3.2 0.00 0.00 0.00 32 1016.0
20260902075104 17 133 0.0 1.6 0.00 0.00 0.00 32 1016.0
20260902074103 18 133 0.0 1.6 0.00 0.00 0.00 28 1016.0
20260902073604 18 133 0.0 1.6 0.00 0.00 0.00 27 1016.0
20260902072605 18 133 0.0 1.6 0.00 0.00 0.00 26 1015.7
20260902071604 18 133 0.0 1.6 0.00 0.00 0.00 26 1015.6
20260902071104 18 133 0.0 1.6 0.00 0.00 0.00 27 1015.5
20260902070607 18 133 0.0 1.6 0.00 0.00 0.00 27 1015.5
20260902065608 18 133 0.0 1.6 0.00 0.00 0.00 28 1015.4
20260902065104 18 133 0.0 0.0 0.00 0.00 0.00 28 1015.4
20260902064604 18 133 0.0 1.6 0.00 0.00 0.00 27 1015.4
20260902064104 18 133 0.0 1.6 0.00 0.00 0.00 28 1015.4
20260902063604 19 133 1.6 1.6 0.00 0.00 0.00 28 1015.5
20260902063104 19 133 0.0 1.6 0.00 0.00 0.00 26 1015.5
20260902062604 19 133 0.0 1.6 0.00 0.00 0.00 27 1015.5
20260902062104 19 133 0.0 1.6 0.00 0.00 0.00 26 1015.5
20260902061104 20 133 0.0 1.6 0.00 0.00 0.00 25 1015.4
20260902060603 20 133 0.0 0.0 0.00 0.00 0.00 25 1015.3
20260902055604 20 133 0.0 1.6 0.00 0.00 0.00 25 1015.2
20260902055104 20 133 0.0 1.6 0.00 0.00 0.00 25 1015.1
20260902054604 20 133 0.0 1.6 0.00 0.00 0.00 25 1015.2
20260902054104 20 133 0.0 1.6 0.00 0.00 0.00 25 1015.2
20260902053604 20 133 0.0 3.2 0.00 0.00 0.00 25 1015.2
20260902053104 20 133 1.6 3.2 0.00 0.00 0.00 24 1015.2
20260902052604 20 133 0.0 1.6 0.00 0.00 0.00 24 1015.3
20260902052104 20 133 0.0 1.6 0.00 0.00 0.00 23 1015.4
20260902051604 21 133 0.0 0.0 0.00 0.00 0.00 23 1015.4
20260902051104 21 133 0.0 0.0 0.00 0.00 0.00 23 1015.4
20260902050607 21 133 0.0 0.0 0.00 0.00 0.00 24 1015.3
20260902050104 21 133 0.0 0.0 0.00 0.00 0.00 24 1015.4
20260902045608 21 133 0.0 1.6 0.00 0.00 0.00 23 1015.3
20260902045104 21 133 0.0 1.6 0.00 0.00 0.00 22 1015.4
20260902044604 21 133 0.0 3.2 0.00 0.00 0.00 22 1015.3
20260902044104 22 133 0.0 3.2 0.00 0.00 0.00 22 1015.2
20260902043604 22 137 0.0 1.6 0.00 0.00 0.00 21 1015.1
20260902043104 22 137 0.0 3.2 0.00 0.00 0.00 20 1015.1
20260902042104 22 132 0.0 1.6 0.00 0.00 0.00 21 1015.0
20260902041604 22 128 0.0 3.2 0.00 0.00 0.00 20 1014.9
20260902040604 22 128 0.0 3.2 0.00 0.00 0.00 20 1014.7
20260902040104 22 180 0.0 3.2 0.00 0.00 0.00 20 1014.6
20260902035610 22 150 0.0 3.2 0.00 0.00 0.00 20 1014.5
20260902035103 22 136 0.0 3.2 0.00 0.00 0.00 21 1014.5
20260902034604 22 139 0.0 3.2 0.00 0.00 0.00 22 1014.5
20260902033604 22 169 0.0 3.2 0.00 0.00 0.00 23 1014.4
20260902033104 22 169 0.0 3.2 0.00 0.00 0.00 23 1014.3
20260902032604 23 170 0.0 3.2 0.00 0.00 0.00 23 1014.1
20260902032104 23 169 0.0 3.2 0.00 0.00 0.00 23 1014.1
20260902031604 23 173 0.0 4.8 0.00 0.00 0.00 24 1013.9
20260902031106 23 165 0.0 4.8 0.00 0.00 0.00 24 1013.8
20260902030603 23 182 0.0 3.2 0.00 0.00 0.00 25 1013.7
20260902030104 23 184 1.6 3.2 0.00 0.00 0.00 25 1013.7
20260902025608 23 173 1.6 4.8 0.00 0.00 0.00 25 1013.7
20260902025104 24 194 1.6 4.8 0.00 0.00 0.00 26 1013.7
20260902024603 24 196 1.6 3.2 0.00 0.00 0.00 26 1013.7
20260902024104 24 180 1.6 4.8 0.00 0.00 0.00 25 1013.7
20260902023604 25 198 1.6 4.8 0.00 0.00 0.00 25 1013.6
20260902023104 25 172 1.6 4.8 0.00 0.00 0.00 25 1013.6
20260902022604 25 182 1.6 3.2 0.00 0.00 0.00 24 1013.5
20260902022104 25 196 0.0 3.2 0.00 0.00 0.00 24 1013.5
20260902020604 26 232 0.0 3.2 0.00 0.00 0.00 23 1013.3
20260902020105 27 231 1.6 4.8 0.00 0.00 0.00 22 1013.2
20260902015605 27 225 1.6 4.8 0.00 0.00 0.00 21 1013.2
20260902015104 27 231 1.6 4.8 0.00 0.00 0.00 22 1013.3
20260902014604 27 220 1.6 4.8 0.00 0.00 0.00 21 1013.2
20260902013604 28 186 1.6 4.8 0.00 0.00 0.00 21 1013.2
20260902012604 28 231 3.2 4.8 0.00 0.00 0.00 21 1013.1
20260902012104 28 259 3.2 4.8 0.00 0.00 0.00 21 1013.1
20260902011604 28 261 3.2 11.3 0.00 0.00 0.00 21 1013.1
20260902011104 28 228 3.2 11.3 0.00 0.00 0.00 21 1013.1
20260902010607 28 241 3.2 11.3 0.00 0.00 0.00 21 1013.1
20260902010105 29 265 4.8 11.3 0.00 0.00 0.00 21 1013.1
20260902005608 29 259 4.8 9.7 0.00 0.00 0.00 21 1013.1
20260902005104 30 260 4.8 9.7 0.00 0.00 0.00 21 1013.1
20260902004104 30 244 4.8 11.3 0.00 0.00 0.00 21 1013.0
20260902003604 30 255 3.2 11.3 0.00 0.00 0.00 22 1013.0
20260902003106 30 257 6.4 11.3 0.00 0.00 0.00 21 1013.1
20260902002605 30 257 3.2 8.0 0.00 0.00 0.00 22 1013.1
20260902002104 30 259 4.8 14.5 0.00 0.00 0.00 22 1013.1
20260902001104 30 265 9.7 16.1 0.00 0.00 0.00 21 1013.1
20260902000604 30 261 6.4 16.1 0.00 0.00 0.00 22 1013.1
20260902000105 30 250 4.8 16.1 0.00 0.00 0.00 22 1013.1
20260901235608 30 233 4.8 12.9 0.00 0.00 0.00 22 1013.1
20260901235104 30 261 6.4 12.9 0.00 0.00 0.00 23 1013.1
20260901234604 30 248 6.4 12.9 0.00 0.00 0.00 22 1013.1
20260901234104 30 265 4.8 11.3 0.00 0.00 0.00 23 1013.1
20260901233604 30 252 6.4 11.3 0.00 0.00 0.00 22 1013.0
20260901233104 31 258 6.4 12.9 0.00 0.00 0.00 23 1013.1
20260901232604 31 262 6.4 12.9 0.00 0.00 0.00 22 1013.1
20260901232104 31 250 6.4 19.3 0.00 0.00 0.00 22 1013.1
20260901231604 31 268 8.0 19.3 0.00 0.00 0.00 21 1013.1
20260901230603 31 248 4.8 14.5 0.00 0.00 0.00 21 1013.1
20260901225606 31 241 4.8 12.9 0.00 0.00 0.00 22 1013.1
20260901225103 31 256 4.8 11.3 0.00 0.00 0.00 23 1013.1
20260901224603 31 263 6.4 11.3 0.00 0.00 0.00 22 1013.2
20260901224104 31 180 3.2 11.3 0.00 0.00 0.00 21 1013.2
20260901223604 31 265 8.0 11.3 0.00 0.00 0.00 22 1013.3
20260901223104 31 294 4.8 12.9 0.00 0.00 0.00 22 1013.3
20260901222604 31 266 3.2 12.9 0.00 0.00 0.00 23 1013.4
20260901222104 31 262 4.8 16.1 0.00 0.00 0.00 22 1013.5
20260901221604 31 262 6.4 16.1 0.00 0.00 0.00 22 1013.5
20260901221104 31 274 3.2 11.3 0.00 0.00 0.00 23 1013.5
20260901220604 31 251 3.2 12.9 0.00 0.00 0.00 21 1013.6
20260901220105 31 264 8.0 12.9 0.00 0.00 0.00 22 1013.6
20260901215607 31 276 4.8 12.9 0.00 0.00 0.00 20 1013.6
20260901215104 31 262 8.0 12.9 0.00 0.00 0.00 20 1013.6
20260901214604 31 266 4.8 9.7 0.00 0.00 0.00 21 1013.6
20260901214103 31 261 4.8 11.3 0.00 0.00 0.00 20 1013.7
20260901213103 31 276 4.8 11.3 0.00 0.00 0.00 20 1013.8
20260901212604 31 274 3.2 11.3 0.00 0.00 0.00 20 1014.0
20260901212104 31 264 3.2 8.0 0.00 0.00 0.00 19 1013.9
20260901211603 31 169 3.2 8.0 0.00 0.00 0.00 19 1014.0
20260901211104 31 264 3.2 9.7 0.00 0.00 0.00 19 1014.0
20260901210605 30 255 3.2 9.7 0.00 0.00 0.00 18 1014.2
20260901210104 31 271 3.2 9.7 0.00 0.00 0.00 18 1014.2
20260901205608 30 271 3.2 4.8 0.00 0.00 0.00 17 1014.2
20260901205104 30 298 3.2 4.8 0.00 0.00 0.00 19 1014.2
20260901204604 30 248 1.6 8.0 0.00 0.00 0.00 18 1014.2
20260901204104 30 264 3.2 11.3 0.00 0.00 0.00 18 1014.3
20260901203604 30 255 4.8 11.3 0.00 0.00 0.00 17 1014.3
20260901203103 30 273 3.2 9.7 0.00 0.00 0.00 17 1014.3
20260901202603 30 280 3.2 9.7 0.00 0.00 0.00 17 1014.3
20260901202104 29 271 1.6 9.7 0.00 0.00 0.00 17 1014.4
20260901201604 30 271 4.8 9.7 0.00 0.00 0.00 17 1014.6
20260901201105 30 271 3.2 9.7 0.00 0.00 0.00 18 1014.6
20260901200604 30 266 4.8 9.7 0.00 0.00 0.00 18 1014.7
20260901200104 30 248 3.2 8.0 0.00 0.00 0.00 18 1014.8
20260901195604 30 256 3.2 8.0 0.00 0.00 0.00 18 1014.8
20260901195106 29 346 3.2 8.0 0.00 0.00 0.00 18 1014.8
20260901194603 29 276 3.2 8.0 0.00 0.00 0.00 19 1014.8
20260901194104 29 257 3.2 8.0 0.00 0.00 0.00 20 1014.8
20260901193604 29 270 3.2 8.0 0.00 0.00 0.00 19 1014.8
20260901193104 28 263 3.2 8.0 0.00 0.00 0.00 19 1014.9
20260901192604 28 274 4.8 8.0 0.00 0.00 0.00 19 1015.0
20260901191604 28 279 3.2 8.0 0.00 0.00 0.00 20 1015.1
20260901191104 29 283 4.8 4.8 0.00 0.00 0.00 21 1015.1
20260901190607 29 319 3.2 4.8 0.00 0.00 0.00 21 1015.2
20260901190104 29 296 3.2 4.8 0.00 0.00 0.00 19 1015.3
20260901185606 28 9 3.2 4.8 0.00 0.00 0.00 20 1015.3
20260901185105 28 215 3.2 4.8 0.00 0.00 0.00 19 1015.3
20260901184604 28 262 3.2 4.8 0.00 0.00 0.00 20 1015.3
20260901184104 28 268 3.2 4.8 0.00 0.00 0.00 21 1015.4
20260901183604 28 312 1.6 4.8 0.00 0.00 0.00 21 1015.3
20260901182603 27 270 1.6 4.8 0.00 0.00 0.00 23 1015.4
20260901182106 27 269 1.6 4.8 0.00 0.00 0.00 22 1015.4
20260901181604 27 264 3.2 4.8 0.00 0.00 0.00 24 1015.4
20260901181104 27 262 1.6 4.8 0.00 0.00 0.00 23 1015.4
20260901180604 27 257 3.2 4.8 0.00 0.00 0.00 23 1015.3
20260901180105 26 297 3.2 4.8 0.00 0.00 0.00 25 1015.3
20260901175609 26 291 3.2 4.8 0.00 0.00 0.00 25 1015.4
20260901175104 26 254 1.6 4.8 0.00 0.00 0.00 25 1015.4
20260901174604 26 285 1.6 4.8 0.00 0.00 0.00 26 1015.4
20260901174104 25 276 1.6 4.8 0.00 0.00 0.00 27 1015.3
20260901173603 25 312 3.2 4.8 0.00 0.00 0.00 27 1015.3
20260901173104 25 270 1.6 4.8 0.00 0.00 0.00 27 1015.3
20260901172603 25 291 1.6 4.8 0.00 0.00 0.00 27 1015.3
20260901172104 25 271 3.2 4.8 0.00 0.00 0.00 28 1015.3
20260901171604 25 285 1.6 4.8 0.00 0.00 0.00 29 1015.3
20260901171104 24 310 1.6 4.8 0.00 0.00 0.00 29 1015.3
20260901170603 24 255 1.6 4.8 0.00 0.00 0.00 29 1015.3
20260901170104 24 311 1.6 4.8 0.00 0.00 0.00 28 1015.3